Weather History for CYBW - May, 2013

Change the Weather History Date:

Monday, May 6, 2013

  Actual Average Record
Temperature  
Mean Temperature 56 °F -  
Max Temperature 81 °F 57 °F 81 °F (2013)
Min Temperature 31 °F 34 °F 21 °F (2002)
Degree Days  
Heating Degree Days 9    
Growing Degree Days 6 (Base 50)    
Moisture  
Dew Point 28 °F    
Average Humidity 34    
Maximum Humidity 87    
Minimum Humidity 6    
Precipitation  
Precipitation 0.00 in - - ()
Sea Level Pressure  
Sea Level Pressure 29.89 in    
Wind  
Wind Speed 8 mph ()    
Max Wind Speed 20 mph    
Max Gust Speed 25 mph    
Visibility 15.0 miles    
Events      
Averages and records for this station are not official NWS values.
T = Trace of Precipitation, MM = Missing Value Source: Averaged Metar Reports

Daily Weather History Graph

Daily Weather History Graph

Search for Another Location

Airport or City:

Trip Planner

Search our weather history database for the weather conditions in past years. The results will help you decide how hot, cold, wet, or windy it might be!

Date:

Astronomy

May. 06, 2013 Rise Set
Actual Time 6:01 AM MDT 9:08 PM MDT
Civil Twilight 5:22 AM MDT 9:47 PM MDT
Nautical Twilight 4:31 AM MDT 10:38 PM MDT
Astronomical Twilight 3:25 AM MDT 11:45 PM MDT
Moon 4:26 AM MDT (5/6) 5:54 PM MDT (5/6)
Length of Visible Light 16h 25m
Length of Day
15h 07m
Waning Crescent, 10% of the Moon is Illuminated
May 6
Waning Crescent
May 9
New
May 17
First Quarter
May 24
Full
May 31
Last Quarter

Hourly Weather History & Observations

Time (MDT) Temp. Windchill Dew Point Humidity Pressure Visibility Wind Dir Wind Speed Gust Speed Precip Events Conditions
5:00 AM 33.8 °F 27.7 °F 28.4 °F 81% 30.02 in 15.0 mi NW 6.9 mph - N/A   Clear
6:00 AM 33 °F - 28 °F 76% 30.03 in 28 mi NW 6.9 mph - -   Clear
6:00 AM 33.8 °F 27.0 °F 28.4 °F 81% 30.02 in 30.0 mi WNW 8.1 mph - N/A   Clear
7:00 AM 33.8 °F 28.6 °F 30.2 °F 87% 30.02 in 30.0 mi NW 5.8 mph - N/A   Clear
8:00 AM 46.4 °F 43.5 °F 35.6 °F 66% 30.00 in 30.0 mi NW 5.8 mph - N/A   Clear
9:00 AM 55.4 °F - 35.6 °F 47% 29.99 in 30.0 mi NW 6.9 mph - N/A   Clear
10:00 AM 62.6 °F - 35.6 °F 37% 29.97 in 30.0 mi North 3.5 mph - N/A   Clear
11:00 AM 71.6 °F - 33.8 °F 25% 29.94 in 30.0 mi ESE 4.6 mph - N/A   Clear
12:00 PM 74 °F - 28 °F 10% 29.91 in 28 mi SE 9.2 mph - -   Clear
12:00 PM 75.2 °F - 28.4 °F 18% 29.91 in 30.0 mi SE 8.1 mph - N/A   Clear
1:00 PM 77.0 °F - 28.4 °F 17% 29.89 in 30.0 mi SE 10.4 mph 18.4 mph N/A   Clear
2:00 PM 78.8 °F - 23.0 °F 13% 29.88 in 30.0 mi SSE 10.4 mph 19.6 mph N/A   Clear
3:00 PM 80.6 °F - 23.0 °F 12% 29.85 in 30.0 mi South 15.0 mph 20.7 mph N/A   Clear
4:00 PM 80.6 °F - 23.0 °F 12% 29.82 in 30.0 mi SSE 17.3 mph 25.3 mph N/A   Clear
5:00 PM 80.6 °F - 23.0 °F 12% 29.81 in 30.0 mi SSE 19.6 mph - N/A   Clear
6:00 PM 79 °F - 23 °F 6% 29.80 in 28 mi SSE 18.4 mph - -  
6:00 PM 78.8 °F - 23.0 °F 13% 29.80 in 30.0 mi SSE 19.6 mph 25.3 mph N/A   Clear
7:00 PM 77.0 °F - 24.8 °F 14% 29.79 in 30.0 mi SSE 16.1 mph 24.2 mph N/A   Clear
8:00 PM 73.4 °F - 30.2 °F 20% 29.77 in 30.0 mi South 12.7 mph - N/A   Clear
9:00 PM 62.6 °F - 28.4 °F 27% 29.78 in 30.0 mi South 12.7 mph - N/A   Clear
10:00 PM 57.2 °F - 26.6 °F 31% 29.78 in 30.0 mi SSE 10.4 mph - N/A   Clear